Hourly Data Report for July 30, 2021

CARIBOU POINT (AUT)
NOVA SCOTIA
Current Station Operator: ECCC - MSC

45°46'00.000" N
62°41'00.000" W
2.40 m
8200774
71415
WBK

Download Data

Hourly Data (July 2021)
Hourly Data Report for July 30, 2021
TIME
LST
Temp Definition
°C
Dew Point Definition
°C
Rel Hum Definition
%
Precip. Amount Definition
mm

Wind Dir Definition
10's deg

Wind Spd Definition
km/h
Visibility Definition
km
Stn Press Definition
kPa
Hmdx Definition


Wind Chill Definition


Weather Definition


00:00 16.5 11.7 73 0.0 19 10   101.18     LegendNANA
01:00 16.0 12.2 78 0.0 21 9   101.16     LegendNANA
02:00 15.8 13.0 84 0.0 21 8   101.10     LegendNANA
03:00 15.5 13.2 86 0.0 20 12   101.06     LegendNANA
04:00 15.6 13.2 86 0.0 21 7   101.02     LegendNANA
05:00 15.9 13.8 88 0.0 19 11   100.98     LegendNANA
06:00 15.9 13.6 86 0.0 18 19   100.98     LegendNANA
07:00 16.1 13.8 86 0.0 19 17   100.93     LegendNANA
08:00 16.3 14.5 89 0.0 18 13   100.88     LegendNANA
09:00 17.0 14.5 85 0.0 18 17   100.79     LegendNANA
10:00 17.5 15.1 86 0.0 14 22   100.70     LegendNANA
11:00 17.4 15.0 86 0.0 12 21   100.60     LegendNANA
12:00 16.9 14.6 87 2.0 14 23   100.53     LegendNANA
13:00 17.0 15.6 92 3.2 13 33   100.35     LegendNANA
14:00 16.9 16.1 96 2.0 14 32   100.19     LegendNANA
15:00 16.9 16.3 97 1.8 11 22   100.02     LegendNANA
16:00 17.7 16.6 94 0.0 11 23   99.83     LegendNANA
17:00 17.9 17.2 96 0.4 11 19   99.69     LegendNANA
18:00 18.2 17.6 96 0.0 15 10   99.65     LegendNANA
19:00 19.4 18.8 96 0.0 22 7   99.63     LegendNANA
20:00 19.2 18.6 96 0.3 24 7   99.64     LegendNANA
21:00 17.1 16.3 95 0.2 27 25   99.69     LegendNANA
22:00 17.3 15.9 92 0.0 29 42   99.80     LegendNANA
23:00 17.2 16.1 93 0.0 30 37   99.87     LegendNANA

Notes on Data Quality.

Legend

  • E = Estimated
  • M = Missing
  • NA = Not Available*
  • [empty] = Indicates an unobserved value
Date modified: